Home   Weather   Haifa   Past weeks

Flag for Israel Past Weather in Haifa, Israel — Yesterday and Last 2 Weeks

Now
79 °F

Clear.


Feels Like: 81 °F
Forecast: 76 / 87 °F
Wind: 6 mph from South

Location: Ben Gurion International Airport

Current Time: Aug 18, 2017 at 4:23:56 am

Latest Report: Aug 18, 2017 at 3:50 am


Visibility: 10 mi

Pressure: 29.77 "Hg

Humidity: 70%

Dew Point: 68 °F

Location of HaifaLocation

Past Weather in Haifa — Graph

°F

Haifa Temperature Yesterday

Maximum temperature yesterday: 91 °F (at 12:50 pm)
Minimum temperature yesterday: 77 °F (at 3:20 am)
Average temperature yesterday: 83 °F

High & Low Weather Summary for the Past Weeks

 TemperatureHumidityPressure
High91 °F (Aug 6, 2:20 pm)89% (Aug 14, 3:50 am)29.83 "Hg (Aug 14, 3:50 am)
Low75 °F (Aug 5, 5:50 am)43% (Aug 5, 11:20 am)29.65 "Hg (Aug 16, 2:20 pm)
Average84 °F66%29.74 "Hg
* Reported Aug 3 2:20 am — Aug 18 2:50 am, Haifa. Weather by CustomWeather, © 2017

Note: Actual official high and low records may vary slightly from our data, if they occured in-between our weather recording intervals... More about our weather records

Advertising

Haifa Weather History for the Previous 24 Hours

Scroll right to see more
 ConditionsComfort  
Time TempWeatherWind HumidityBarometerVisibility
2:50 am
Fri, Aug 18
79 °FClear.7 mph70%29.77 "Hg10 mi
2:20 am79 °FClear.6 mph70%29.77 "Hg10 mi
1:50 am79 °FPassing clouds.6 mph70%29.77 "HgN/A
1:20 am81 °FPassing clouds.5 mph66%29.77 "HgN/A
12:50 am81 °FPassing clouds.3 mph66%29.77 "HgN/A
12:20 am81 °FPassing clouds.3 mph66%29.77 "HgN/A
11:50 pm
Thu, Aug 17
81 °FPassing clouds.3 mph66%29.77 "HgN/A
11:20 pm81 °FClear.3 mph66%29.77 "Hg10 mi
10:50 pm81 °FClear.5 mph66%29.77 "Hg10 mi
10:20 pm82 °FClear.6 mph62%29.77 "Hg10 mi
9:50 pm82 °FClear.6 mph62%29.77 "Hg10 mi
9:20 pm82 °FClear.5 mph62%29.77 "Hg10 mi
8:50 pm84 °FClear.5 mph58%29.77 "Hg10 mi
8:20 pm84 °FClear.5 mph58%29.77 "Hg10 mi
7:50 pm84 °FClear.5 mph58%29.74 "Hg10 mi
7:20 pm84 °FSunny.6 mph58%29.74 "Hg10 mi
6:50 pm86 °FSunny.7 mph55%29.74 "Hg10 mi
6:20 pm86 °FPassing clouds.8 mph55%29.74 "HgN/A
5:50 pm86 °FPassing clouds.8 mph55%29.74 "HgN/A
5:20 pm88 °FPassing clouds.10 mph55%29.71 "HgN/A
4:50 pm88 °FPassing clouds.14 mph55%29.71 "HgN/A
3:50 pm90 °FPassing clouds.15 mph59%29.71 "HgN/A
3:20 pm88 °FPassing clouds.16 mph59%29.71 "HgN/A
2:50 pm90 °FPassing clouds.15 mph52%29.71 "HgN/A
2:20 pm90 °FPassing clouds.14 mph55%29.71 "HgN/A
1:50 pm90 °FPassing clouds.14 mph52%29.71 "HgN/A
1:20 pm91 °FPassing clouds.15 mph49%29.71 "HgN/A
12:50 pm91 °FScattered clouds.12 mph46%29.71 "HgN/A
12:20 pm90 °FScattered clouds.8 mph52%29.71 "HgN/A
11:50 am88 °FPassing clouds.6 mph52%29.71 "HgN/A
11:20 am90 °FPassing clouds.5 mph49%29.74 "HgN/A
10:50 am88 °FScattered clouds.6 mph52%29.74 "HgN/A
10:20 am86 °FScattered clouds.6 mph55%29.74 "HgN/A
9:50 am84 °FScattered clouds.5 mph62%29.74 "HgN/A
9:20 am84 °FScattered clouds.3 mph62%29.74 "HgN/A
8:50 am82 °FScattered clouds.3 mph66%29.74 "HgN/A
8:20 am81 °FPassing clouds.7 mph70%29.74 "HgN/A
7:50 am84 °FScattered clouds.8 mph62%29.74 "HgN/A
7:20 am79 °FScattered clouds.6 mph74%29.71 "HgN/A
6:50 am77 °FScattered clouds.6 mph79%29.71 "HgN/A
6:20 am79 °FScattered clouds.9 mph74%29.71 "HgN/A
5:50 am77 °FPassing clouds.5 mph79%29.68 "HgN/A
5:20 am77 °FPassing clouds.5 mph79%29.68 "HgN/A
4:50 am77 °FPassing clouds.3 mph79%29.68 "HgN/A
4:20 am77 °FPassing clouds.5 mph79%29.68 "HgN/A
Weather by CustomWeather, © 2017

See weather overviewHow to use our weather pages